EW3521 Weather Reports


Display with metric or nautical units.
time (UTC)temp
F
wind
direction
speed
MPH
gust
MPH
rain 1hr
in
rain 24hr
in
rain mn
in
humidity
%
barometer
mb
20260502163049 44 96 1.0 3.0 0.00 0.00 0.00 63 1025.2
20260502161551 43 97 1.0 3.0 0.00 0.00 0.00 62 1025.4
20260502151535 41 29 1.0 3.0 0.00 0.00 0.00 71 1025.5
20260502123011 33 131 0.0 1.0 0.00 0.00 0.00 87 1026.0
20260502121602 30 176 0.0 1.0 0.00 0.00 0.00 92 1026.1
20260502120109 29 146 0.0 0.0 0.00 0.00 0.00 94 1026.2
20260502114629 27 146 0.0 0.0 0.00 0.00 0.00 95 1026.2
20260502113050 25 146 0.0 0.0 0.00 0.00 0.00 95 1026.1
20260502111550 24 146 0.0 0.0 0.00 0.00 0.00 95 1026.0
20260502110049 22 146 0.0 0.0 0.00 0.00 0.00 95 1026.0
20260502104548 22 146 0.0 0.0 0.00 0.00 0.00 95 1025.9
20260502103045 21 146 0.0 0.0 0.00 0.00 0.00 95 1026.0
20260502101601 21 146 0.0 0.0 0.00 0.00 0.00 95 1025.9
20260502071529 24 146 0.0 0.0 0.00 0.00 0.00 95 1025.6
20260502070033 24 146 0.0 0.0 0.00 0.00 0.00 95 1025.6
20260502064540 24 146 0.0 0.0 0.00 0.00 0.00 95 1025.6
20260502063025 24 146 0.0 0.0 0.00 0.00 0.00 95 1025.6
20260502061523 24 146 0.0 0.0 0.00 0.00 0.00 94 1025.5
20260502060030 25 146 0.0 0.0 0.00 0.00 0.00 94 1025.6
20260502054521 25 146 0.0 0.0 0.00 0.00 0.00 94 1025.7
20260502053018 25 146 0.0 0.0 0.00 0.00 0.00 94 1025.6
20260502051516 25 146 0.0 0.0 0.00 0.00 0.00 93 1025.6
20260502050019 26 146 0.0 0.0 0.00 0.00 0.00 93 1025.5
20260502044513 26 146 0.0 0.0 0.00 0.00 0.00 92 1025.5
20260502043010 27 146 0.0 0.0 0.00 0.00 0.00 93 1025.4
20260502041509 27 146 0.0 0.0 0.00 0.00 0.00 92 1025.5
20260502040006 27 146 0.0 0.0 0.00 0.00 0.00 91 1025.6
20260502034504 28 146 0.0 0.0 0.00 0.00 0.00 90 1025.5
20260502033001 29 146 0.0 0.0 0.00 0.00 0.00 90 1025.5
20260502031501 29 146 0.0 0.0 0.00 0.00 0.00 90 1025.4
20260502030001 30 146 0.0 0.0 0.00 0.00 0.00 89 1025.5
20260502024602 30 146 0.0 0.0 0.00 0.00 0.00 87 1025.5
20260502023106 31 146 0.0 0.0 0.00 0.00 0.00 86 1025.5
20260502021558 32 146 0.0 0.0 0.00 0.00 0.00 84 1025.6
20260502020058 33 146 0.0 0.0 0.00 0.00 0.00 83 1025.5
20260502014556 34 146 0.0 0.0 0.00 0.00 0.00 81 1025.4
20260502013059 35 146 0.0 0.0 0.00 0.00 0.00 80 1025.3
20260502011559 35 160 0.0 0.0 0.00 0.00 0.00 80 1025.2
20260502010106 35 123 0.0 1.0 0.00 0.00 0.00 80 1025.1
20260502004552 36 129 0.0 1.0 0.00 0.00 0.00 79 1025.1
20260502003050 36 125 0.0 2.0 0.00 0.00 0.00 77 1025.0
20260502001549 36 104 0.0 1.0 0.00 0.00 0.00 77 1024.9
20260502000050 37 124 0.0 1.0 0.00 0.00 0.00 75 1024.8
20260501234548 37 141 0.0 1.0 0.00 0.00 0.00 74 1024.7
20260501233046 37 123 0.0 1.0 0.00 0.00 0.00 74 1024.7
20260501231545 38 117 0.0 2.0 0.00 0.00 0.00 70 1024.6
20260501230045 38 117 0.0 1.0 0.00 0.00 0.00 70 1024.6
20260501224544 38 97 0.0 1.0 0.00 0.00 0.00 70 1024.7
20260501223145 38 129 0.0 1.0 0.00 0.00 0.00 70 1024.6
20260501221541 38 98 0.0 3.0 0.00 0.00 0.00 71 1024.6
20260501220040 39 114 0.0 2.0 0.00 0.00 0.00 69 1024.3
20260501214539 39 148 0.0 1.0 0.00 0.00 0.00 66 1024.3
20260501213037 39 97 0.0 3.0 0.00 0.00 0.00 68 1024.1
20260501211537 39 89 1.0 3.0 0.00 0.00 0.00 66 1023.9
20260501210034 39 99 1.0 3.0 0.00 0.00 0.00 65 1023.9
20260501204546 40 77 1.0 3.0 0.00 0.00 0.00 66 1023.9
20260501203031 41 126 0.0 3.0 0.00 0.00 0.00 63 1023.7
20260501201532 41 110 0.0 4.0 0.00 0.00 0.00 62 1023.6
20260501200032 42 100 1.0 3.0 0.00 0.00 0.00 59 1023.6
20260501194530 43 92 0.0 4.0 0.00 0.00 0.00 59 1023.5
20260501193028 43 191 0.0 4.0 0.00 0.00 0.00 55 1023.5
20260501191534 43 172 0.0 3.0 0.00 0.00 0.00 52 1023.6
20260501190027 42 177 1.0 4.0 0.00 0.00 0.00 50 1023.4
20260501184540 43 96 1.0 4.0 0.00 0.00 0.00 49 1023.3
20260501183027 43 87 1.0 3.0 0.00 0.00 0.00 50 1023.3
20260501181520 42 152 0.0 3.0 0.00 0.00 0.00 54 1023.2
20260501180017 40 80 0.0 2.0 0.00 0.00 0.00 78 1023.2
20260501174517 38 49 1.0 3.0 0.00 0.00 0.00 80 1023.3
20260501173015 37 78 1.0 2.0 0.00 0.00 0.00 79 1023.5